This is the latest recevied weather packets stored in our database for station/object DL2AKT-20. If no packets are shown the sender has not sent any weather packets the latest 10 day(s).
| Time | Temp. | Humidity | Pressure | Rain* | Wind** | Luminosity | Snow |
|---|---|---|---|---|---|---|---|
| 1777511965 | 8.33° C | 32% | 1032.5 hPa | - | - | - | - |
| 1777511064 | 8.89° C | 32% | 1032.3 hPa | - | - | - | - |
| 1777510817 | 8.89° C | 32% | 1032.3 hPa | - | - | - | - |
| 1777509919 | 8.33° C | 32% | 1032.4 hPa | - | - | - | - |
| 1777509019 | 8.89° C | 32% | 1032.3 hPa | - | - | - | - |
| 1777508125 | 8.89° C | 32% | 1032.3 hPa | - | - | - | - |
| 1777507219 | 8.33° C | 32% | 1032.3 hPa | - | - | - | - |
| 1777506319 | 8.89° C | 32% | 1032.4 hPa | - | - | - | - |
| 1777505418 | 8.89° C | 32% | 1032.5 hPa | - | - | - | - |
| 1777504518 | 9.44° C | 31% | 1032.5 hPa | - | - | - | - |
| 1777503618 | 9.44° C | 31% | 1032.4 hPa | - | - | - | - |
| 1777502718 | 9.44° C | 32% | 1032.3 hPa | - | - | - | - |
| 1777501818 | 10.56° C | 31% | 1032.2 hPa | - | - | - | - |
| 1777500918 | 11.67° C | 29% | 1032.1 hPa | - | - | - | - |
| 1777500018 | 11.11° C | 30% | 1032 hPa | - | - | - | - |
| 1777499117 | 12.22° C | 30% | 1031.9 hPa | - | - | - | - |
| 1777498217 | 13.33° C | 31% | 1031.8 hPa | - | - | - | - |
| 1777497325 | 13.33° C | 31% | 1031.8 hPa | - | - | - | - |
| 1777496417 | 13.33° C | 31% | 1031.6 hPa | - | - | - | - |
| 1777495517 | 13.33° C | 30% | 1031.7 hPa | - | - | - | - |
| 1777494617 | 13.89° C | 31% | 1031.5 hPa | - | - | - | - |
| 1777493717 | 13.89° C | 29% | 1031.7 hPa | - | - | - | - |
| 1777492817 | 14.44° C | 29% | 1031.4 hPa | - | - | - | - |
| 1777491917 | 14.44° C | 29% | 1031.3 hPa | - | - | - | - |
| 1777491016 | 14.44° C | 28% | 1031.1 hPa | - | - | - | - |
* Rain since midnight (hover to see other rain measurements)
** Current wind speed in m/s (hover to see current wind gust speed)